• In Deutschland
  • Länderverzeichnis
  • Für 7 Tage
  • Wassertemperatur
  • Satellitenkarten
  • Wetterkarte
  • Widgets
  • user-avatar
    Anmelden

    Stündliche Wetter Lörrach

    Heute, 18 Juni, Montag

    Zeit Temperatur Niederschläge Wind Luftdruck Luftfeuchtigkeit
    00:00 +15°C° 0 mm 1 m/S 739 mmHg 92%
    01:00 +15°C° 0 mm 1 m/S 739 mmHg 94%
    02:00 +14°C° 0 mm 1 m/S 739 mmHg 94%
    03:00 +13°C° 0 mm 0 m/S 739 mmHg 94%
    04:00 +13°C° 0 mm 0 m/S 739 mmHg 94%
    05:00 +14°C° 0 mm 0 m/S 739 mmHg 91%
    06:00 +15°C° 0 mm 0 m/S 739 mmHg 89%
    07:00 +17°C° 0 mm 0 m/S 739 mmHg 86%
    08:00 +18°C° 0 mm 0 m/S 739 mmHg 78%
    09:00 +22°C° 0 mm 1 m/S 739 mmHg 69%
    10:00 +23°C° 0 mm 1 m/S 739 mmHg 61%
    11:00 +24°C° 0 mm 1 m/S 740 mmHg 57%
    12:00 +25°C° 0 mm 2 m/S 740 mmHg 53%
    13:00 +26°C° 0 mm 2 m/S 740 mmHg 50%
    14:00 +26°C° 0 mm 2 m/S 740 mmHg 50%
    15:00 +26°C° 0 mm 2 m/S 739 mmHg 50%
    16:00 +26°C° 0 mm 2 m/S 739 mmHg 50%
    17:00 +25°C° 0 mm 2 m/S 739 mmHg 57%
    18:00 +24°C° 0 mm 2 m/S 739 mmHg 63%
    19:00 +23°C° 0 mm 1 m/S 739 mmHg 70%
    20:00 +21°C° 0 mm 1 m/S 740 mmHg 75%
    21:00 +20°C° 0 mm 1 m/S 740 mmHg 81%
    22:00 +18°C° 0 mm 1 m/S 740 mmHg 87%
    23:00 +16°C° 0 mm 1 m/S 740 mmHg 88%

    Morgen, 19 Juni, Dienstag

    Zeit Temperatur Niederschläge Wind Luftdruck Luftfeuchtigkeit
    00:00 +16°C° 0 mm 1 m/S 740 mmHg 90%
    01:00 +14°C° 0 mm 0 m/S 740 mmHg 91%
    02:00 +14°C° 0 mm 0 m/S 740 mmHg 92%
    03:00 +14°C° 0 mm 0 m/S 740 mmHg 92%
    04:00 +14°C° 0 mm 0 m/S 740 mmHg 92%
    05:00 +15°C° 0 mm 0 m/S 740 mmHg 89%
    06:00 +16°C° 0 mm 0 m/S 741 mmHg 86%
    07:00 +18°C° 0 mm 0 m/S 741 mmHg 82%
    08:00 +19°C° 0 mm 0 m/S 741 mmHg 76%
    09:00 +23°C° 0 mm 1 m/S 741 mmHg 70%
    10:00 +25°C° 0 mm 1 m/S 741 mmHg 64%
    11:00 +26°C° 0 mm 2 m/S 741 mmHg 61%
    12:00 +26°C° 0 mm 2 m/S 740 mmHg 57%
    13:00 +27°C° 0 mm 2 m/S 740 mmHg 54%
    14:00 +28°C° 0 mm 2 m/S 740 mmHg 54%
    15:00 +28°C° 0 mm 3 m/S 740 mmHg 54%
    16:00 +28°C° 0 mm 3 m/S 740 mmHg 54%
    17:00 +27°C° 0 mm 3 m/S 739 mmHg 60%
    18:00 +26°C° 0 mm 3 m/S 739 mmHg 66%
    19:00 +25°C° 0 mm 2 m/S 739 mmHg 72%
    20:00 +23°C° 0 mm 2 m/S 740 mmHg 78%
    21:00 +20°C° 0 mm 2 m/S 740 mmHg 84%
    22:00 +19°C° 0 mm 2 m/S 740 mmHg 90%
    23:00 +19°C° 0 mm 1 m/S 740 mmHg 91%

    übermorgen, 20 Juni, Mittwoch

    Zeit Temperatur Niederschläge Wind Luftdruck Luftfeuchtigkeit
    00:00 +19°C° 0 mm 1 m/S 740 mmHg 93%
    01:00 +18°C° 0 mm 1 m/S 739 mmHg 94%
    02:00 +18°C° 0 mm 1 m/S 739 mmHg 94%
    03:00 +16°C° 0 mm 1 m/S 739 mmHg 94%
    04:00 +16°C° 0 mm 1 m/S 739 mmHg 95%
    05:00 +18°C° 0 mm 1 m/S 739 mmHg 92%
    06:00 +19°C° 0 mm 1 m/S 739 mmHg 89%
    07:00 +20°C° 0 mm 1 m/S 739 mmHg 86%
    08:00 +22°C° 0 mm 1 m/S 739 mmHg 79%
    09:00 +24°C° 0 mm 2 m/S 739 mmHg 72%
    10:00 +25°C° 0 mm 2 m/S 739 mmHg 66%
    11:00 +27°C° 0 mm 2 m/S 738 mmHg 61%
    12:00 +28°C° 0 mm 2 m/S 738 mmHg 55%
    13:00 +30°C° 0 mm 2 m/S 738 mmHg 50%
    14:00 +30°C° 0 mm 2 m/S 738 mmHg 50%
    15:00 +30°C° 0 mm 2 m/S 737 mmHg 50%
    16:00 +30°C° 0 mm 2 m/S 737 mmHg 50%
    17:00 +29°C° 0 mm 2 m/S 737 mmHg 57%
    18:00 +28°C° 0 mm 2 m/S 737 mmHg 65%
    19:00 +27°C° 0 mm 1 m/S 737 mmHg 72%
    20:00 +25°C° 0 mm 1 m/S 737 mmHg 77%
    21:00 +24°C° 0 mm 1 m/S 737 mmHg 83%
    22:00 +22°C° 0 mm 1 m/S 737 mmHg 88%
    23:00 +21°C° 0 mm 1 m/S 737 mmHg 89%

    21 Juni, Donnerstag

    Zeit Temperatur Niederschläge Wind Luftdruck Luftfeuchtigkeit
    00:00 +19°C° 0 mm 0 m/S 737 mmHg 90%
    01:00 +18°C° 0 mm 0 m/S 736 mmHg 91%
    02:00 +18°C° 0 mm 0 m/S 736 mmHg 91%
    03:00 +20°C° 0 mm 1 m/S 736 mmHg 92%
    04:00 +19°C° 0 mm 1 m/S 736 mmHg 92%
    05:00 +20°C° 0 mm 1 m/S 736 mmHg 89%
    06:00 +22°C° 0 mm 1 m/S 736 mmHg 86%
    07:00 +23°C° 0 mm 1 m/S 735 mmHg 83%
    08:00 +24°C° 0 mm 1 m/S 735 mmHg 76%
    09:00 +26°C° 0 mm 2 m/S 735 mmHg 69%
    10:00 +28°C° 0 mm 2 m/S 735 mmHg 61%
    11:00 +28°C° 0,1 mm 3 m/S 735 mmHg 59%
    12:00 +29°C° 0,1 mm 3 m/S 735 mmHg 58%
    13:00 +29°C° 0,1 mm 4 m/S 735 mmHg 56%
    14:00 +29°C° 0,1 mm 4 m/S 735 mmHg 55%
    15:00 +29°C° 0,1 mm 4 m/S 735 mmHg 55%
    16:00 +28°C° 0,1 mm 5 m/S 735 mmHg 55%
    17:00 +27°C° 0,1 mm 4 m/S 735 mmHg 61%
    18:00 +25°C° 0,1 mm 4 m/S 735 mmHg 67%
    19:00 +23°C° 0,1 mm 4 m/S 736 mmHg 72%
    20:00 +21°C° 0,1 mm 3 m/S 736 mmHg 77%
    21:00 +19°C° 0,1 mm 3 m/S 737 mmHg 81%
    22:00 +17°C° 0,1 mm 2 m/S 737 mmHg 85%
    23:00 +16°C° 0 mm 2 m/S 738 mmHg 84%

    22 Juni, Freitag

    Zeit Temperatur Niederschläge Wind Luftdruck Luftfeuchtigkeit
    00:00 +15°C° 0 mm 2 m/S 738 mmHg 84%
    01:00 +14°C° 0 mm 2 m/S 738 mmHg 83%
    02:00 +13°C° 0 mm 2 m/S 738 mmHg 82%
    03:00 +12°C° 0 mm 2 m/S 738 mmHg 81%
    04:00 +10°C° 0 mm 2 m/S 738 mmHg 79%
    05:00 +12°C° 0 mm 2 m/S 738 mmHg 76%
    06:00 +12°C° 0 mm 2 m/S 739 mmHg 72%
    07:00 +13°C° 0 mm 2 m/S 739 mmHg 68%
    08:00 +14°C° 0 mm 2 m/S 739 mmHg 61%
    09:00 +16°C° 0 mm 3 m/S 739 mmHg 53%
    10:00 +17°C° 0 mm 3 m/S 739 mmHg 46%
    11:00 +18°C° 0 mm 3 m/S 739 mmHg 43%
    12:00 +19°C° 0 mm 3 m/S 739 mmHg 40%
    13:00 +20°C° 0 mm 3 m/S 738 mmHg 37%
    14:00 +21°C° 0 mm 3 m/S 738 mmHg 38%
    15:00 +21°C° 0 mm 4 m/S 738 mmHg 39%
    16:00 +21°C° 0 mm 4 m/S 738 mmHg 40%
    17:00 +20°C° 0 mm 4 m/S 738 mmHg 47%
    18:00 +18°C° 0 mm 4 m/S 738 mmHg 54%
    19:00 +17°C° 0 mm 3 m/S 738 mmHg 60%
    20:00 +14°C° 0 mm 3 m/S 738 mmHg 67%
    21:00 +13°C° 0 mm 2 m/S 739 mmHg 74%
    22:00 +10°C° 0 mm 2 m/S 739 mmHg 81%
    23:00 +11°C° 0 mm 1 m/S 739 mmHg 82%

    23 Juni, Samstag

    Zeit Temperatur Niederschläge Wind Luftdruck Luftfeuchtigkeit
    00:00 +11°C° 0 mm 1 m/S 739 mmHg 83%
    01:00 +10°C° 0 mm 1 m/S 739 mmHg 85%
    02:00 +10°C° 0 mm 1 m/S 739 mmHg 87%
    03:00 +9°C° 0 mm 1 m/S 738 mmHg 89%
    04:00 +9°C° 0 mm 1 m/S 738 mmHg 91%
    05:00 +10°C° 0 mm 1 m/S 738 mmHg 86%
    06:00 +10°C° 0 mm 2 m/S 738 mmHg 81%
    07:00 +12°C° 0 mm 2 m/S 738 mmHg 76%
    08:00 +14°C° 0 mm 2 m/S 738 mmHg 69%
    09:00 +16°C° 0 mm 2 m/S 738 mmHg 62%
    10:00 +18°C° 0 mm 3 m/S 737 mmHg 55%
    11:00 +19°C° 0 mm 3 m/S 737 mmHg 51%
    12:00 +20°C° 0 mm 3 m/S 737 mmHg 48%
    13:00 +21°C° 0 mm 3 m/S 737 mmHg 44%
    14:00 +21°C° 0 mm 3 m/S 737 mmHg 45%
    15:00 +21°C° 0 mm 3 m/S 737 mmHg 45%
    16:00 +21°C° 0 mm 4 m/S 736 mmHg 45%
    17:00 +20°C° 0 mm 3 m/S 736 mmHg 50%
    18:00 +19°C° 0 mm 3 m/S 736 mmHg 56%
    19:00 +18°C° 0 mm 3 m/S 737 mmHg 61%
    20:00 +17°C° 0 mm 2 m/S 737 mmHg 66%
    21:00 +15°C° 0 mm 2 m/S 737 mmHg 72%
    22:00 +13°C° 0 mm 2 m/S 737 mmHg 77%
    23:00 +12°C° 0 mm 2 m/S 737 mmHg 79%
    Mehr zeigen